| time (UTC) | temp F | wind direction | speed MPH | gust MPH | rain 1hr in | rain 24hr in | rain mn in | humidity % | barometer mb |
| 20260906113101 | 60 | 0 | 0.0 | 2.0 | 0.00 | 0.00 | 0.00 | 51 | 1023.5 |
| 20260906111626 | 60 | 0 | 0.0 | 1.0 | 0.00 | 0.00 | 0.00 | 52 | 1023.5 |
| 20260906104607 | 60 | 0 | 0.0 | 1.0 | 0.00 | 0.00 | 0.00 | 61 | 1023.6 |
| 20260906103111 | 60 | 0 | 0.0 | 1.0 | 0.00 | 0.00 | 0.00 | 61 | 1023.7 |
| 20260906101604 | 61 | 0 | 0.0 | 0.0 | 0.00 | 0.00 | 0.00 | 55 | 1023.7 |
| 20260906094604 | 64 | 0 | 0.0 | 1.0 | 0.00 | 0.00 | 0.00 | 48 | 1023.5 |
| 20260906093108 | 65 | 0 | 0.0 | 1.0 | 0.00 | 0.00 | 0.00 | 47 | 1023.7 |
| 20260906091612 | 65 | 193 | 2.0 | 4.0 | 0.00 | 0.00 | 0.00 | 48 | 1023.7 |
| 20260906090116 | 63 | 0 | 0.0 | 1.0 | 0.00 | 0.00 | 0.00 | 50 | 1023.7 |
| 20260906084611 | 64 | 0 | 0.0 | 1.0 | 0.00 | 0.00 | 0.00 | 49 | 1023.5 |
| 20260906083106 | 65 | 0 | 0.0 | 1.0 | 0.00 | 0.00 | 0.00 | 47 | 1023.4 |
| 20260906081607 | 65 | 0 | 0.0 | 3.0 | 0.00 | 0.00 | 0.00 | 48 | 1023.5 |
| 20260906080104 | 65 | 0 | 0.0 | 2.0 | 0.00 | 0.00 | 0.00 | 48 | 1023.6 |
| 20260906074611 | 65 | 0 | 0.0 | 1.0 | 0.00 | 0.00 | 0.00 | 48 | 1023.7 |
| 20260906073110 | 66 | 0 | 0.0 | 2.0 | 0.00 | 0.00 | 0.00 | 47 | 1023.8 |
| 20260906071609 | 67 | 0 | 0.0 | 3.0 | 0.00 | 0.00 | 0.00 | 45 | 1023.9 |
| 20260906070135 | 68 | 0 | 0.0 | 4.0 | 0.00 | 0.00 | 0.00 | 43 | 1023.8 |
| 20260906064602 | 69 | 0 | 0.0 | 3.0 | 0.00 | 0.00 | 0.00 | 42 | 1023.8 |
| 20260906063108 | 69 | 207 | 0.0 | 3.0 | 0.00 | 0.00 | 0.00 | 41 | 1023.7 |
| 20260906061635 | 70 | 188 | 1.0 | 9.0 | 0.00 | 0.00 | 0.00 | 41 | 1023.9 |
| 20260906060109 | 70 | 214 | 2.0 | 6.0 | 0.00 | 0.00 | 0.00 | 39 | 1023.8 |
| 20260906054602 | 71 | 0 | 0.0 | 3.0 | 0.00 | 0.00 | 0.00 | 38 | 1024.3 |
| 20260906053101 | 72 | 63 | 2.0 | 4.0 | 0.00 | 0.00 | 0.00 | 37 | 1024.6 |
| 20260906051606 | 72 | 0 | 2.0 | 11.0 | 0.00 | 0.00 | 0.00 | 37 | 1024.6 |
| 20260906050116 | 73 | 207 | 5.0 | 10.0 | 0.00 | 0.00 | 0.00 | 35 | 1023.9 |
| 20260906044603 | 72 | 212 | 3.0 | 10.0 | 0.00 | 0.00 | 0.00 | 35 | 1023.8 |
| 20260906043112 | 72 | 222 | 3.0 | 12.0 | 0.00 | 0.00 | 0.00 | 36 | 1023.7 |
| 20260906041608 | 72 | 239 | 3.0 | 11.0 | 0.00 | 0.00 | 0.00 | 36 | 1023.6 |
| 20260906040119 | 72 | 264 | 4.0 | 20.0 | 0.00 | 0.00 | 0.00 | 36 | 1023.6 |
| 20260906034602 | 73 | 211 | 8.0 | 16.0 | 0.00 | 0.00 | 0.00 | 33 | 1023.6 |
| 20260906033108 | 73 | 215 | 1.0 | 5.0 | 0.00 | 0.00 | 0.00 | 32 | 1023.4 |
| 20260906031618 | 73 | 221 | 1.0 | 6.0 | 0.00 | 0.00 | 0.00 | 32 | 1023.4 |
| 20260906030113 | 73 | 224 | 1.0 | 11.0 | 0.00 | 0.00 | 0.00 | 33 | 1023.1 |
| 20260906024607 | 72 | 251 | 6.0 | 12.0 | 0.00 | 0.00 | 0.00 | 34 | 1023.0 |
| 20260906023132 | 72 | 239 | 3.0 | 11.0 | 0.00 | 0.00 | 0.00 | 34 | 1022.9 |
| 20260906021608 | 73 | 217 | 3.0 | 11.0 | 0.00 | 0.00 | 0.00 | 35 | 1022.9 |
| 20260906020107 | 74 | 234 | 1.0 | 4.0 | 0.00 | 0.00 | 0.00 | 32 | 1022.8 |
| 20260906014629 | 74 | 205 | 5.0 | 11.0 | 0.00 | 0.00 | 0.00 | 31 | 1023.3 |
| 20260906013103 | 74 | 245 | 4.0 | 11.0 | 0.00 | 0.00 | 0.00 | 33 | 1023.0 |
| 20260906011608 | 74 | 199 | 4.0 | 9.0 | 0.00 | 0.00 | 0.00 | 32 | 1022.8 |
| 20260906010111 | 74 | 192 | 4.0 | 9.0 | 0.00 | 0.00 | 0.00 | 32 | 1022.8 |
| 20260906004614 | 75 | 214 | 3.0 | 6.0 | 0.00 | 0.00 | 0.00 | 32 | 1023.1 |
| 20260906003109 | 76 | 0 | 0.0 | 5.0 | 0.00 | 0.00 | 0.00 | 31 | 1023.1 |
| 20260906001602 | 76 | 195 | 2.0 | 7.0 | 0.00 | 0.00 | 0.00 | 31 | 1023.0 |
| 20260906000111 | 77 | 211 | 2.0 | 8.0 | 0.00 | 0.00 | 0.00 | 30 | 1023.0 |
| 20260905234605 | 79 | 233 | 2.0 | 10.0 | 0.00 | 0.00 | 0.00 | 28 | 1022.8 |
| 20260905233106 | 78 | 73 | 2.0 | 6.0 | 0.00 | 0.00 | 0.00 | 26 | 1022.9 |
| 20260905231607 | 79 | 204 | 0.0 | 5.0 | 0.00 | 0.00 | 0.00 | 26 | 1022.7 |
| 20260905230110 | 80 | 160 | 2.0 | 6.0 | 0.00 | 0.00 | 0.00 | 24 | 1022.4 |
| 20260905224610 | 80 | 335 | 0.0 | 3.0 | 0.00 | 0.00 | 0.00 | 23 | 1022.5 |
| 20260905223107 | 80 | 280 | 0.0 | 4.0 | 0.00 | 0.00 | 0.00 | 23 | 1022.5 |
| 20260905221608 | 81 | 48 | 1.0 | 5.0 | 0.00 | 0.00 | 0.00 | 23 | 1022.5 |
| 20260905220123 | 81 | 1 | 1.0 | 4.0 | 0.00 | 0.00 | 0.00 | 22 | 1022.4 |
| 20260905214606 | 82 | 330 | 3.0 | 9.0 | 0.00 | 0.00 | 0.00 | 22 | 1022.6 |
| 20260905213108 | 83 | 17 | 3.0 | 9.0 | 0.00 | 0.00 | 0.00 | 22 | 1022.8 |
| 20260905211609 | 83 | 44 | 0.0 | 7.0 | 0.00 | 0.00 | 0.00 | 21 | 1022.8 |
| 20260905210107 | 83 | 25 | 2.0 | 12.0 | 0.00 | 0.00 | 0.00 | 22 | 1023.0 |
| 20260905204606 | 82 | 82 | 4.0 | 12.0 | 0.00 | 0.00 | 0.00 | 22 | 1023.1 |
| 20260905203105 | 81 | 155 | 3.0 | 8.0 | 0.00 | 0.00 | 0.00 | 23 | 1023.4 |
| 20260905201607 | 80 | 53 | 4.0 | 9.0 | 0.00 | 0.00 | 0.00 | 23 | 1023.6 |
| 20260905200101 | 81 | 288 | 4.0 | 12.0 | 0.00 | 0.00 | 0.00 | 22 | 1023.6 |
| 20260905194607 | 82 | 21 | 3.0 | 13.0 | 0.00 | 0.00 | 0.00 | 22 | 1023.7 |
| 20260905193104 | 80 | 28 | 2.0 | 13.0 | 0.00 | 0.00 | 0.00 | 24 | 1023.8 |
| 20260905191605 | 82 | 4 | 4.0 | 13.0 | 0.00 | 0.00 | 0.00 | 24 | 1023.8 |
| 20260905190114 | 79 | 70 | 6.0 | 11.0 | 0.00 | 0.00 | 0.00 | 25 | 1023.9 |
| 20260905184607 | 82 | 50 | 4.0 | 11.0 | 0.00 | 0.00 | 0.00 | 24 | 1023.9 |
| 20260905183126 | 81 | 4 | 5.0 | 14.0 | 0.00 | 0.00 | 0.00 | 26 | 1023.8 |
| 20260905181606 | 81 | 6 | 5.0 | 13.0 | 0.00 | 0.00 | 0.00 | 26 | 1024.0 |
| 20260905180103 | 82 | 68 | 4.0 | 8.0 | 0.00 | 0.00 | 0.00 | 26 | 1024.2 |
| 20260905174607 | 82 | 51 | 5.0 | 11.0 | 0.00 | 0.00 | 0.00 | 27 | 1024.1 |
| 20260905173105 | 80 | 49 | 5.0 | 12.0 | 0.00 | 0.00 | 0.00 | 28 | 1024.2 |
| 20260905171605 | 79 | 1 | 3.0 | 11.0 | 0.00 | 0.00 | 0.00 | 29 | 1024.2 |
| 20260905170104 | 82 | 13 | 2.0 | 10.0 | 0.00 | 0.00 | 0.00 | 25 | 1023.7 |
| 20260905164608 | 82 | 30 | 4.0 | 10.0 | 0.00 | 0.00 | 0.00 | 24 | 1023.6 |
| 20260905163105 | 81 | 20 | 2.0 | 13.0 | 0.00 | 0.00 | 0.00 | 23 | 1023.6 |
| 20260905161605 | 84 | 36 | 3.0 | 7.0 | 0.00 | 0.00 | 0.00 | 20 | 1023.5 |
| 20260905160123 | 83 | 257 | 3.0 | 10.0 | 0.00 | 0.00 | 0.00 | 20 | 1023.6 |
| 20260905154607 | 83 | 22 | 1.0 | 5.0 | 0.00 | 0.00 | 0.00 | 21 | 1023.6 |
| 20260905153112 | 83 | 316 | 0.0 | 5.0 | 0.00 | 0.00 | 0.00 | 20 | 1023.5 |
| 20260905151610 | 81 | 259 | 1.0 | 4.0 | 0.00 | 0.00 | 0.00 | 22 | 1023.5 |
| 20260905150104 | 81 | 0 | 0.0 | 3.0 | 0.00 | 0.00 | 0.00 | 23 | 1023.5 |
| 20260905144606 | 79 | 191 | 0.0 | 4.0 | 0.00 | 0.00 | 0.00 | 24 | 1023.7 |
| 20260905143111 | 79 | 0 | 0.0 | 2.0 | 0.00 | 0.00 | 0.00 | 24 | 1023.7 |
| 20260905141605 | 78 | 41 | 0.0 | 2.0 | 0.00 | 0.00 | 0.00 | 24 | 1023.7 |
| 20260905140110 | 77 | 268 | 0.0 | 7.0 | 0.00 | 0.00 | 0.00 | 25 | 1023.5 |
| 20260905134607 | 76 | 110 | 1.0 | 5.0 | 0.00 | 0.00 | 0.00 | 26 | 1023.2 |
| 20260905133108 | 74 | 213 | 2.0 | 10.0 | 0.00 | 0.00 | 0.00 | 27 | 1023.1 |
| 20260905131616 | 73 | 243 | 4.0 | 9.0 | 0.00 | 0.00 | 0.00 | 28 | 1023.0 |
| 20260905130123 | 71 | 236 | 0.0 | 3.0 | 0.00 | 0.00 | 0.00 | 29 | 1022.8 |
| 20260905124608 | 69 | 272 | 2.0 | 10.0 | 0.00 | 0.00 | 0.00 | 30 | 1022.7 |
| 20260905123107 | 69 | 208 | 3.0 | 7.0 | 0.00 | 0.00 | 0.00 | 29 | 1022.5 |
| 20260905121604 | 70 | 215 | 1.0 | 6.0 | 0.00 | 0.00 | 0.00 | 29 | 1022.5 |
| 20260905120114 | 69 | 245 | 3.0 | 10.0 | 0.00 | 0.00 | 0.00 | 30 | 1022.5 |
| 20260905114605 | 68 | 221 | 3.0 | 7.0 | 0.00 | 0.00 | 0.00 | 32 | 1022.5 |